ABR3386 LOWL-EDDH

Flight info

Callsign ABR3386
Flight time 1h 5m
Altitude 34000
Route LOWL/26 N0456F340 PETE1W PETEN DCT PINQI DCT GAVLI DCT TOPDI DCT SOGMA M748 RARUP RARU6A EDDH/05
Aircraft B737/M-V/N

Departure

Time 2026-04-20 15:05
Airport Linz-Hörsching Airport (LOWL)

Arrival

Time 2026-04-20 16:11
Airport Hamburg Helmut Schmidt Airport (EDDH)
Time Latitude Longitude Altitude Speed Heading
2026-04-20 14:46 48.23841 14.19149 974 ft 0 kts 87°
2026-04-20 14:59 48.23841 14.19157 974 ft 2 kts 85°
2026-04-20 14:59 48.23842 14.19182 984 ft 5 kts 89°
2026-04-20 14:59 48.23808 14.19211 977 ft 5 kts 174°
2026-04-20 15:00 48.23787 14.19216 979 ft 5 kts 172°
2026-04-20 15:00 48.23759 14.19238 978 ft 5 kts 118°
2026-04-20 15:00 48.23759 14.19315 974 ft 9 kts 86°
2026-04-20 15:00 48.23762 14.19422 973 ft 10 kts 86°
2026-04-20 15:01 48.23766 14.19519 972 ft 9 kts 87°
2026-04-20 15:01 48.23746 14.19602 968 ft 10 kts 152°
2026-04-20 15:01 48.23684 14.19637 968 ft 9 kts 159°
2026-04-20 15:01 48.23622 14.19674 967 ft 10 kts 159°
2026-04-20 15:02 48.23536 14.19723 976 ft 16 kts 159°
2026-04-20 15:02 48.23435 14.19784 973 ft 12 kts 159°
2026-04-20 15:02 48.23366 14.19851 978 ft 12 kts 118°
2026-04-20 15:02 48.23363 14.19976 979 ft 13 kts 88°
2026-04-20 15:03 48.23368 14.20125 974 ft 16 kts 86°
2026-04-20 15:03 48.23375 14.20313 971 ft 20 kts 87°
2026-04-20 15:03 48.23382 14.20519 975 ft 19 kts 88°
2026-04-20 15:03 48.23365 14.20667 967 ft 11 kts 86°
2026-04-20 15:04 48.23396 14.20660 971 ft 7 kts 271°
2026-04-20 15:04 48.23382 14.20593 980 ft 7 kts 266°
2026-04-20 15:04 48.23375 14.20298 976 ft 62 kts 268°
2026-04-20 15:04 48.23341 14.19307 977 ft 126 kts 267°
2026-04-20 15:05 48.23283 14.17763 1145 ft 163 kts 269°
2026-04-20 15:05 48.23229 14.15964 1706 ft 175 kts 271°
2026-04-20 15:05 48.23204 14.14136 2626 ft 176 kts 270°
2026-04-20 15:05 48.23118 14.12298 3328 ft 183 kts 273°
2026-04-20 15:06 48.23451 14.10383 3672 ft 199 kts 300°
2026-04-20 15:06 48.24352 14.08785 4266 ft 206 kts 321°
2026-04-20 15:06 48.25742 14.07835 4446 ft 240 kts 346°
2026-04-20 15:06 48.27448 14.07507 5131 ft 249 kts 349°
2026-04-20 15:07 48.29178 14.07175 5991 ft 253 kts 348°
2026-04-20 15:07 48.30945 14.06813 6809 ft 259 kts 348°
2026-04-20 15:07 48.32749 14.06431 7639 ft 264 kts 347°
2026-04-20 15:07 48.34584 14.06035 8522 ft 269 kts 347°
2026-04-20 15:08 48.36451 14.05626 9455 ft 273 kts 346°
2026-04-20 15:08 48.38351 14.05205 10317 ft 279 kts 346°
2026-04-20 15:08 48.40353 14.04753 10624 ft 304 kts 346°
2026-04-20 15:08 48.41112 14.04579 10709 ft 314 kts 347°
2026-04-20 15:09 48.41240 14.04550 10726 ft 315 kts 347°
2026-04-20 15:09 48.43480 14.04037 11127 ft 334 kts 347°
2026-04-20 15:09 48.45816 14.03511 11760 ft 344 kts 347°
2026-04-20 15:09 48.48191 14.02982 12638 ft 346 kts 347°
2026-04-20 15:10 48.50583 14.02450 13544 ft 349 kts 347°
2026-04-20 15:10 48.52993 14.01909 14365 ft 352 kts 347°
2026-04-20 15:10 48.55433 14.01359 15154 ft 357 kts 347°
2026-04-20 15:10 48.57905 14.00798 15942 ft 361 kts 347°
2026-04-20 15:11 48.60409 14.00230 16745 ft 366 kts 347°
2026-04-20 15:11 48.62938 13.99656 17522 ft 370 kts 347°
2026-04-20 15:11 48.65499 13.99073 18330 ft 374 kts 347°
2026-04-20 15:11 48.68087 13.98482 19014 ft 378 kts 346°
2026-04-20 15:12 48.70657 13.97639 19671 ft 378 kts 340°
2026-04-20 15:12 48.73194 13.96540 20368 ft 381 kts 339°
2026-04-20 15:12 48.75736 13.95373 21059 ft 383 kts 338°
2026-04-20 15:12 48.78299 13.94181 21713 ft 387 kts 338°
2026-04-20 15:13 48.80882 13.92983 22358 ft 390 kts 338°
2026-04-20 15:13 48.83527 13.91766 22989 ft 394 kts 339°
2026-04-20 15:13 48.86230 13.90531 23602 ft 398 kts 338°
2026-04-20 15:13 48.88931 13.89303 24093 ft 401 kts 339°
2026-04-20 15:14 48.91614 13.88088 24627 ft 403 kts 339°
2026-04-20 15:14 48.94276 13.86884 25145 ft 405 kts 339°
2026-04-20 15:14 48.96981 13.85661 25654 ft 408 kts 339°
2026-04-20 15:14 48.99707 13.84426 26093 ft 411 kts 339°
2026-04-20 15:15 49.02457 13.83179 26526 ft 414 kts 339°
2026-04-20 15:15 49.05225 13.81923 26998 ft 416 kts 339°
2026-04-20 15:15 49.08004 13.80660 27439 ft 419 kts 339°
2026-04-20 15:15 49.10804 13.79386 27850 ft 422 kts 339°
2026-04-20 15:16 49.13625 13.78101 28240 ft 425 kts 339°
2026-04-20 15:16 49.16466 13.76805 28646 ft 427 kts 339°
2026-04-20 15:16 49.19326 13.75499 29032 ft 430 kts 339°
2026-04-20 15:16 49.22197 13.74188 29476 ft 431 kts 339°
2026-04-20 15:17 49.25063 13.72878 30062 ft 429 kts 339°
2026-04-20 15:17 49.27943 13.71561 30569 ft 426 kts 339°
2026-04-20 15:17 49.30792 13.70255 30942 ft 427 kts 339°
2026-04-20 15:17 49.33646 13.68944 31281 ft 429 kts 339°
2026-04-20 15:18 49.36499 13.67631 31659 ft 429 kts 339°
2026-04-20 15:18 49.39356 13.66315 32055 ft 428 kts 339°
2026-04-20 15:18 49.42212 13.64998 32425 ft 429 kts 339°
2026-04-20 15:18 49.45068 13.63679 32778 ft 429 kts 340°
2026-04-20 15:19 49.47930 13.62357 33148 ft 429 kts 340°
2026-04-20 15:19 49.50788 13.61034 33489 ft 430 kts 340°
2026-04-20 15:19 49.53656 13.59705 33833 ft 430 kts 340°
2026-04-20 15:19 49.56528 13.58372 34051 ft 433 kts 340°
2026-04-20 15:20 49.59425 13.57025 34044 ft 436 kts 340°
2026-04-20 15:20 49.65220 13.54330 34047 ft 433 kts 340°
2026-04-20 15:21 49.70962 13.51653 34052 ft 431 kts 340°
2026-04-20 15:21 49.76698 13.48971 34044 ft 430 kts 340°
2026-04-20 15:22 49.82418 13.46288 34054 ft 430 kts 340°
2026-04-20 15:22 49.88145 13.43596 34050 ft 430 kts 340°
2026-04-20 15:23 49.93889 13.40890 34060 ft 431 kts 340°
2026-04-20 15:23 49.99616 13.38185 34050 ft 432 kts 341°
2026-04-20 15:24 50.05365 13.35463 34050 ft 432 kts 341°
2026-04-20 15:24 50.11118 13.32732 34058 ft 433 kts 341°
2026-04-20 15:25 50.16887 13.29986 34054 ft 434 kts 341°
2026-04-20 15:25 50.22674 13.27225 34052 ft 435 kts 341°
2026-04-20 15:26 50.28468 13.24454 34052 ft 435 kts 341°
2026-04-20 15:26 50.34248 13.21682 34055 ft 434 kts 341°
2026-04-20 15:27 50.40030 13.18902 34058 ft 434 kts 341°
2026-04-20 15:27 50.45808 13.16117 34060 ft 434 kts 341°
2026-04-20 15:28 50.51563 13.13219 34063 ft 434 kts 337°
2026-04-20 15:28 50.57105 13.09481 34072 ft 434 kts 335°
2026-04-20 15:29 50.62623 13.05629 34078 ft 434 kts 335°
2026-04-20 15:29 50.68154 13.01788 34087 ft 434 kts 335°
2026-04-20 15:30 50.73693 12.97961 34080 ft 435 kts 336°
2026-04-20 15:30 50.79241 12.94130 34092 ft 435 kts 336°
2026-04-20 15:31 50.84786 12.90292 34088 ft 435 kts 336°
2026-04-20 15:31 50.90332 12.86442 34095 ft 436 kts 336°
2026-04-20 15:32 50.95888 12.82576 34099 ft 436 kts 336°
2026-04-20 15:32 51.01445 12.78698 34094 ft 436 kts 336°
2026-04-20 15:33 51.06998 12.74812 34095 ft 436 kts 336°
2026-04-20 15:33 51.12553 12.70916 34097 ft 437 kts 336°
2026-04-20 15:34 51.17175 12.67665 34099 ft 437 kts 336°
2026-04-20 15:34 51.22733 12.63747 34089 ft 437 kts 336°
2026-04-20 15:35 51.28292 12.59819 34095 ft 437 kts 336°
2026-04-20 15:35 51.33868 12.55867 34098 ft 439 kts 336°
2026-04-20 15:36 51.39457 12.51895 34104 ft 440 kts 336°
2026-04-20 15:36 51.45041 12.47917 34091 ft 440 kts 336°
2026-04-20 15:37 51.50633 12.43922 34095 ft 440 kts 336°
2026-04-20 15:37 51.56218 12.39921 34101 ft 439 kts 336°
2026-04-20 15:38 51.61797 12.35914 34102 ft 439 kts 336°
2026-04-20 15:38 51.67494 12.31810 34101 ft 440 kts 336°
2026-04-20 15:39 51.73079 12.27776 34097 ft 440 kts 336°
2026-04-20 15:39 51.78668 12.23729 34098 ft 441 kts 336°
2026-04-20 15:40 51.84302 12.19817 34095 ft 441 kts 342°
2026-04-20 15:40 51.90250 12.17466 34094 ft 441 kts 348°
2026-04-20 15:41 51.96254 12.15388 34095 ft 441 kts 348°
2026-04-20 15:41 52.02248 12.13260 34098 ft 441 kts 348°
2026-04-20 15:42 52.08234 12.11078 34098 ft 441 kts 347°
2026-04-20 15:42 52.14202 12.08674 34085 ft 443 kts 340°
2026-04-20 15:43 52.19708 12.04147 34098 ft 445 kts 331°
2026-04-20 15:43 52.25085 11.99131 34096 ft 445 kts 331°
2026-04-20 15:44 52.30464 11.94137 34097 ft 444 kts 331°
2026-04-20 15:44 52.35851 11.89188 34098 ft 444 kts 332°
2026-04-20 15:45 52.41243 11.84249 34096 ft 444 kts 332°
2026-04-20 15:45 52.46629 11.79306 34103 ft 444 kts 332°
2026-04-20 15:46 52.51988 11.74372 34077 ft 445 kts 332°
2026-04-20 15:46 52.54714 11.71857 33535 ft 452 kts 332°
2026-04-20 15:46 52.57466 11.69313 33051 ft 444 kts 332°
2026-04-20 15:46 52.60101 11.66872 32565 ft 437 kts 332°
2026-04-20 15:47 52.62728 11.64436 32097 ft 430 kts 332°
2026-04-20 15:47 52.65313 11.62034 31633 ft 424 kts 332°
2026-04-20 15:47 52.67868 11.59659 31167 ft 419 kts 333°
2026-04-20 15:47 52.70388 11.57313 30720 ft 413 kts 333°
2026-04-20 15:48 52.72873 11.54996 30273 ft 409 kts 333°
2026-04-20 15:48 52.75336 11.52698 29768 ft 404 kts 333°
2026-04-20 15:48 52.77770 11.50424 29241 ft 399 kts 333°
2026-04-20 15:48 52.80172 11.48177 28735 ft 394 kts 333°
2026-04-20 15:49 52.82544 11.45955 28228 ft 390 kts 333°
2026-04-20 15:49 52.84891 11.43754 27733 ft 386 kts 333°
2026-04-20 15:49 52.87209 11.41577 27254 ft 381 kts 333°
2026-04-20 15:49 52.89508 11.39416 26772 ft 378 kts 333°
2026-04-20 15:50 52.91780 11.37276 26305 ft 374 kts 333°
2026-04-20 15:50 52.94027 11.35159 25847 ft 370 kts 334°
2026-04-20 15:50 52.96256 11.33056 25397 ft 367 kts 334°
2026-04-20 15:50 52.98467 11.30967 24947 ft 364 kts 334°
2026-04-20 15:51 53.00658 11.28895 24516 ft 361 kts 333°
2026-04-20 15:51 53.02831 11.26836 24078 ft 358 kts 334°
2026-04-20 15:51 53.04987 11.24793 23637 ft 355 kts 334°
2026-04-20 15:51 53.07127 11.22761 23132 ft 353 kts 334°
2026-04-20 15:52 53.09249 11.20745 22629 ft 350 kts 334°
2026-04-20 15:52 53.11359 11.18737 22136 ft 348 kts 334°
2026-04-20 15:52 53.13454 11.16742 21658 ft 346 kts 334°
2026-04-20 15:53 53.17598 11.12788 20715 ft 341 kts 334°
2026-04-20 15:53 53.19654 11.10823 20250 ft 340 kts 334°
2026-04-20 15:53 53.21700 11.08866 19798 ft 338 kts 334°
2026-04-20 15:53 53.23732 11.06920 19346 ft 336 kts 334°
2026-04-20 15:54 53.25695 11.04808 18895 ft 338 kts 322°
2026-04-20 15:54 53.27228 11.01813 18466 ft 343 kts 304°
2026-04-20 15:54 53.28244 10.98204 17995 ft 344 kts 293°
2026-04-20 15:54 53.29057 10.94454 17504 ft 343 kts 292°
2026-04-20 15:55 53.29835 10.90749 17029 ft 342 kts 292°
2026-04-20 15:55 53.30628 10.86964 16544 ft 340 kts 292°
2026-04-20 15:55 53.31403 10.83285 16069 ft 339 kts 292°
2026-04-20 15:55 53.32189 10.79581 15615 ft 338 kts 292°
2026-04-20 15:56 53.32974 10.75892 15162 ft 336 kts 292°
2026-04-20 15:56 53.33759 10.72217 14718 ft 335 kts 292°
2026-04-20 15:56 53.34540 10.68558 14276 ft 334 kts 292°
2026-04-20 15:56 53.35320 10.64904 13830 ft 332 kts 292°
2026-04-20 15:57 53.36096 10.61269 13340 ft 331 kts 292°
2026-04-20 15:57 53.36869 10.57642 12848 ft 330 kts 292°
2026-04-20 15:57 53.37636 10.54035 12372 ft 328 kts 292°
2026-04-20 15:57 53.38400 10.50437 11909 ft 327 kts 292°
2026-04-20 15:58 53.39159 10.46855 11453 ft 326 kts 291°
2026-04-20 15:58 53.39914 10.43287 10990 ft 324 kts 291°
2026-04-20 15:58 53.40663 10.39741 10554 ft 322 kts 291°
2026-04-20 15:58 53.41411 10.36201 10122 ft 322 kts 291°
2026-04-20 15:59 53.41913 10.33817 9821 ft 320 kts 291°
2026-04-20 15:59 53.42519 10.30934 9493 ft 317 kts 291°
2026-04-20 15:59 53.43245 10.27469 9098 ft 313 kts 291°
2026-04-20 16:00 53.43963 10.24044 8697 ft 310 kts 291°
2026-04-20 16:00 53.44674 10.20647 8313 ft 307 kts 291°
2026-04-20 16:00 53.45368 10.17316 8189 ft 295 kts 291°
2026-04-20 16:00 53.46029 10.14144 8131 ft 282 kts 291°
2026-04-20 16:01 53.46672 10.11054 7830 ft 280 kts 291°
2026-04-20 16:01 53.47314 10.07978 7508 ft 279 kts 291°
2026-04-20 16:01 53.47952 10.04908 7179 ft 278 kts 291°
2026-04-20 16:01 53.48583 10.01855 6866 ft 276 kts 291°
2026-04-20 16:02 53.49215 9.98813 6534 ft 275 kts 291°
2026-04-20 16:02 53.49591 9.95688 6176 ft 278 kts 268°
2026-04-20 16:02 53.49072 9.92591 5853 ft 276 kts 239°
2026-04-20 16:02 53.47941 9.90016 5538 ft 274 kts 228°
2026-04-20 16:03 53.46709 9.87587 5211 ft 273 kts 228°
2026-04-20 16:03 53.45472 9.85168 4869 ft 273 kts 228°
2026-04-20 16:03 53.44245 9.82752 4497 ft 272 kts 228°
2026-04-20 16:03 53.43091 9.80250 4144 ft 273 kts 243°
2026-04-20 16:04 53.42744 9.77199 3778 ft 264 kts 280°
2026-04-20 16:04 53.43364 9.74411 3501 ft 252 kts 309°
2026-04-20 16:04 53.44568 9.72413 3187 ft 238 kts 333°
2026-04-20 16:04 53.46044 9.71468 3019 ft 216 kts 357°
2026-04-20 16:05 53.47458 9.71513 2994 ft 196 kts 15°
2026-04-20 16:05 53.48725 9.72184 2982 ft 188 kts 30°
2026-04-20 16:05 53.49767 9.73423 3014 ft 182 kts 42°
2026-04-20 16:05 53.50736 9.74824 3011 ft 184 kts 43°
2026-04-20 16:06 53.51702 9.76250 2996 ft 184 kts 45°
2026-04-20 16:06 53.52602 9.77756 2971 ft 182 kts 49°
2026-04-20 16:06 53.53454 9.79392 2794 ft 190 kts 51°
2026-04-20 16:06 53.54294 9.81085 2528 ft 184 kts 52°
2026-04-20 16:07 53.55086 9.82694 2265 ft 174 kts 51°
2026-04-20 16:07 53.55827 9.84201 2050 ft 159 kts 51°
2026-04-20 16:07 53.56498 9.85566 1829 ft 144 kts 51°
2026-04-20 16:07 53.57095 9.86777 1651 ft 124 kts 51°
2026-04-20 16:08 53.57612 9.87826 1481 ft 110 kts 51°
2026-04-20 16:08 53.58096 9.88811 1321 ft 109 kts 51°
2026-04-20 16:08 53.58576 9.89782 1183 ft 109 kts 51°
2026-04-20 16:08 53.59067 9.90775 1014 ft 112 kts 50°
2026-04-20 16:09 53.59576 9.91796 887 ft 116 kts 51°
2026-04-20 16:09 53.60097 9.92854 714 ft 115 kts 52°
2026-04-20 16:09 53.60601 9.93893 531 ft 116 kts 50°
2026-04-20 16:09 53.61125 9.94940 376 ft 118 kts 50°
2026-04-20 16:10 53.61639 9.95990 191 ft 117 kts 51°
2026-04-20 16:10 53.62151 9.97031 61 ft 108 kts 51°
2026-04-20 16:10 53.62565 9.97875 51 ft 77 kts 50°
2026-04-20 16:10 53.62836 9.98422 52 ft 50 kts 50°
2026-04-20 16:11 53.63037 9.98827 50 ft 41 kts 50°
2026-04-20 16:11 53.63199 9.99154 52 ft 32 kts 50°
2026-04-20 16:11 53.63287 9.99379 52 ft 21 kts 70°
2026-04-20 16:11 53.63282 9.99586 50 ft 11 kts 100°
2026-04-20 16:12 53.63269 9.99702 47 ft 10 kts 110°
2026-04-20 16:12 53.63216 9.99767 50 ft 9 kts 154°
2026-04-20 16:12 53.63158 9.99815 49 ft 9 kts 152°
2026-04-20 16:12 53.63102 9.99865 50 ft 9 kts 152°
2026-04-20 16:13 53.63044 9.99915 50 ft 9 kts 153°
2026-04-20 16:13 53.62987 9.99966 49 ft 9 kts 152°
2026-04-20 16:13 53.62947 10.00027 50 ft 7 kts 105°
2026-04-20 16:13 53.62937 10.00083 47 ft 7 kts 112°
2026-04-20 16:14 53.62911 10.00155 50 ft 7 kts 123°
2026-04-20 16:14 53.62887 10.00218 48 ft 3 kts 122°
2026-04-20 16:14 53.62882 10.00231 49 ft 0 kts 122°